Погода в Парамарибо

Суринам     5°49′24″N   55°10′32″W
темп.,
°C
ветер,
м/с
пор.,
м/с
влажн.,
%
обл.,
%
осадки,
мм/ч
давл.,
гПа
погр.,
м
13 августа, сб
сб1300:00+23в1598100 0.0 1014105
03:00+23вюв21098100 0.0 1012295
06:00+22вюв2129791 0.0 1013417
09:00+26юв3107892 0.0 1015617
12:00+32юв3549100 0.0 10141481
15:00+34вюв253830 0.0 10112563
18:00+29св3765100 0.0 1011330
21:00+25всв2118173 0.3 1013449
14 августа, вс
вс1400:00+25в21184100 0.0 1015590
03:00+24вюв21187100 0.0 1013543
06:00+23вюв2119073 0.0 1013506
09:00+27вюв39735 0.0 1015838
12:00+33вюв364512 0.0 10142161
15:00+31св3757100 0.2 10111354
18:00+26всв289029 1.4 1011292
21:00+23св21098100 5.3 1013292
15 августа, пн
пн1500:00+23в119917 1.0 101426
03:00+22вюв119994 1.8 101246
06:00+22вюв169987 0.9 1012175
09:00+25вюв249242 3.1 1014392
12:00+32всв245215 0.0 10131754
15:00+33св34496 0.4 10101987
18:00+29св37685 0.1 1010601
21:00+24св28885 0.1 1012236
16 августа, вт
вт1600:00+23в12935 0.0 101259
03:00+22всв119921 2.9 101126
06:00+22в119926 2.3 101236
09:00+25в13905 2.8 1013280
12:00+32св23486 0.0 10121842
15:00+29с366298 0.0 1010572
18:00+28ссв377254 0.0 1010584
21:00+24св15889 0.3 1011139
17 августа, ср
ср1700:00+23вюв11985 1.0 101227
03:00+22в1310029 3.5 101074
06:00+22вюв149927 1.7 1011123
09:00+25юв24890 1.8 1012324
12:00+33вюв12495 0.0 10111614
15:00+31ссв345687 0.1 1008994
18:00+27ссв287924 0.1 1009397
21:00+24св11924 1.6 101131